Location: Huesca
(42.1318°N, 0.4078°W)
Time: 21:11:27
(UTC+02:00)

DIWATA 2B (PO-101) - Pass Details

Date: 28 April 2024
Orbit: 575 x 589 km, 98.1° (Epoch: 20 May)

Event Time Altitude Azimuth Distance (km) Brightness Sun altitude
Rises 04:05:43 0° 118° (ESE) 2,815 ? -26.5°
Reaches altitude 10° 04:08:52 10° 92° (E) 1,918 ? -26.2°
Maximum altitude 04:10:53 13° 63° (ENE) 1,705 ? -26.0°
Drops below altitude 10° 04:12:55 10° 33° (NNE) 1,922 ? -25.7°
Sets 04:16:03 0° 7° (N) 2,826 ? -25.4°
